Погода в Майкопе

Россия / Республика Адыгея     44˚36′31″N   40˚05′54″E
темп.,
°C
ветер,
м/с
пор.,
м/с
влажн.,
%
обл.,
%
осадки,
мм/ч
давл.,
гПа
погр.,
м
16 января, сб
сб1600:00−2˚ю129567 0.1 101431
03:00−3˚ю129265 0.1 101529
06:00−1˚ююз139498 0.2 1016141
09:00−1˚сз259799 1.2 1017331
12:00−1˚с2393100 2.4 1017287
15:00−1˚св2392100 2.6 1016331
18:00−3˚св2596100 0.2 1016252
21:00−2˚всв3994100 0.2 1014409
17 января, вс
вс1700:00−1˚всв4991100 0.0 1011459
03:00всв4992100 0.1 1008637
06:00в41094100 1.0 1004616
09:00всв41086100 1.2 1002511
12:00+1˚в2492100 1.6 1002318
15:00+2˚св2492100 1.8 1001277
18:00+2˚ююв0296100 0.7 100167
21:00+1˚св11100100 7.6 100157
18 января, пн
пн1800:00зсз1399100 7.4 1003139
03:00−5˚з41093100 9.0 1006477
06:00−7˚з4793100 0.8 1010505
09:00−7˚з3692100 1.0 1013410
12:00−4˚з2486100 0.1 1015439
15:00−4˚зсз2489100 0.1 1016421
18:00−7˚юз1196100 0.0 101825
21:00−8˚ююз0195100 0.0 101922
19 января, вт
вт1900:00−7˚ююз1292100 0.0 101940
03:00−8˚юв229088 0.0 101928
06:00−6˚ю259099 0.2 1019190
09:00−7˚зсз2697100 1.8 1020261
12:00−2˚зсз268489 0.0 1020741
15:00−5˚ссз479595 2.4 1019467
18:00−7˚зсз1596100 1.9 1021273
21:00−8˚зсз1397100 2.2 1024202
20 января, ср
ср2000:00−9˚з0197100 0.3 102421
03:00−11˚ююв0197100 0.3 102521
06:00−12˚ю119490 0.0 102621
09:00−10˚ю119352 0.0 102733
12:00−5˚сз24820 0.0 1027481
15:00−6˚ссз239022 0.0 1027486
18:00−10˚св019795 0.1 102923
21:00−11˚ю129483 0.1 103121